"read_dt","SO2 (ppb)","flags","PMT voltage (V)","lamp voltage (V)","lamp intensity (Hz)","internal temp (C)","react chamber temp (C)","sample flow (l/min)","pres (mmHg)","SO2 bkg (ppb)","SO2 coefficient"
2016-07-29 00:00:00,2321E-3,5C000400,-0724,0825,12176,028.8,045.5,0.254,753.3,01.17,0.508
2016-07-29 00:01:00,2253E-3,5C000400,-0724,0825,12326,028.8,045.5,0.253,753.3,01.17,0.508
2016-07-29 00:02:00,2103E-3,5C000400,-0724,0824,12168,028.8,045.5,0.254,753.3,01.17,0.508
2016-07-29 00:03:00,2165E-3,5C000400,-0724,0825,12203,028.8,045.5,0.253,753.2,01.17,0.508
2016-07-29 00:04:00,2187E-3,5C000400,-0724,0825,12251,028.8,045.5,0.254,753.3,01.17,0.508
2016-07-29 00:05:00,2102E-3,5C000400,-0724,0826,12200,028.8,045.5,0.254,753.3,01.17,0.508
2016-07-29 00:06:00,2276E-3,5C000400,-0724,0824,12265,028.8,045.5,0.253,753.4,01.17,0.508
2016-07-29 00:07:00,2139E-3,5C000400,-0724,0825,12334,028.8,045.5,0.254,753.4,01.17,0.508
2016-07-29 00:08:00,2234E-3,5C000400,-0724,0825,12310,028.8,045.5,0.253,753.3,01.17,0.508
2016-07-29 00:09:00,2128E-3,5C000400,-0724,0825,12326,028.8,045.5,0.254,753.3,01.17,0.508
2016-07-29 00:10:00,2177E-3,5C000400,-0724,0824,12197,028.8,045.5,0.253,753.3,01.17,0.508
2016-07-29 00:11:00,2324E-3,5C000400,-0724,0824,12275,028.8,045.5,0.254,753.4,01.17,0.508
2016-07-29 00:12:00,2221E-3,5C000400,-0724,0826,12206,028.8,045.5,0.253,753.4,01.17,0.508
2016-07-29 00:13:00,2104E-3,5C000400,-0724,0824,12153,028.8,045.5,0.253,753.4,01.17,0.508
2016-07-29 00:14:00,2197E-3,5C000400,-0724,0825,12458,028.8,045.5,0.254,753.4,01.17,0.508
2016-07-29 00:15:00,2121E-3,5C000400,-0724,0824,12102,028.8,045.5,0.253,753.4,01.17,0.508
2016-07-29 00:16:00,2313E-3,5C000400,-0724,0824,12231,028.8,045.5,0.254,753.4,01.17,0.508
2016-07-29 00:17:00,2166E-3,5C000400,-0724,0825,12232,028.8,045.5,0.253,753.4,01.17,0.508
2016-07-29 00:18:00,2227E-3,5C000400,-0724,0825,12349,028.8,045.5,0.254,753.4,01.17,0.508
2016-07-29 00:19:00,2207E-3,5C000400,-0724,0825,12282,028.8,045.5,0.253,753.4,01.17,0.508
2016-07-29 00:20:00,2163E-3,5C000400,-0724,0825,12112,028.8,045.5,0.253,753.4,01.17,0.508
2016-07-29 00:21:00,2170E-3,5C000400,-0724,0824,12330,028.8,045.5,0.253,753.3,01.17,0.508
2016-07-29 00:22:00,2165E-3,5C000400,-0724,0824,12263,028.8,045.5,0.253,753.3,01.17,0.508
2016-07-29 00:23:00,2092E-3,5C000400,-0724,0825,12226,028.8,045.5,0.254,753.3,01.17,0.508
2016-07-29 00:24:00,2196E-3,5C000400,-0724,0825,12072,028.8,045.5,0.253,753.3,01.17,0.508
2016-07-29 00:25:00,2224E-3,5C000400,-0724,0825,12092,028.8,045.5,0.254,753.3,01.17,0.508
2016-07-29 00:26:00,2141E-3,5C000400,-0724,0825,12181,028.8,045.5,0.253,753.3,01.17,0.508
2016-07-29 00:27:00,2301E-3,5C000400,-0724,0826,12387,028.8,045.5,0.254,753.3,01.17,0.508
2016-07-29 00:28:00,2222E-3,5C000400,-0724,0825,12179,028.8,045.5,0.253,753.4,01.17,0.508
2016-07-29 00:29:00,2129E-3,5C000400,-0724,0824,12325,028.8,045.5,0.254,753.3,01.17,0.508
2016-07-29 00:30:00,2250E-3,5C000400,-0724,0825,12338,028.8,045.5,0.254,753.3,01.17,0.508
2016-07-29 00:31:00,2288E-3,5C000400,-0724,0825,12223,028.8,045.5,0.254,753.3,01.17,0.508
2016-07-29 00:32:00,2175E-3,5C000400,-0724,0825,12207,028.8,045.5,0.254,753.4,01.17,0.508
2016-07-29 00:33:00,2201E-3,5C000400,-0724,0825,12138,028.8,045.5,0.253,753.4,01.17,0.508
2016-07-29 00:34:00,2207E-3,5C000400,-0724,0825,12076,028.8,045.5,0.254,753.4,01.17,0.508
2016-07-29 00:35:00,2148E-3,5C000400,-0724,0825,12174,028.8,045.5,0.253,753.4,01.17,0.508
2016-07-29 00:36:00,2181E-3,5C000400,-0724,0825,12177,028.8,045.5,0.254,753.4,01.17,0.508
2016-07-29 00:37:00,2224E-3,5C000400,-0724,0826,12272,028.8,045.5,0.253,753.5,01.17,0.508
2016-07-29 00:38:00,2218E-3,5C000400,-0724,0825,12219,028.8,045.5,0.253,753.4,01.17,0.508
2016-07-29 00:39:00,2404E-3,5C000400,-0724,0824,12291,028.8,045.5,0.253,753.4,01.17,0.508
2016-07-29 00:40:00,2161E-3,5C000400,-0724,0825,12307,028.8,045.5,0.253,753.4,01.17,0.508
2016-07-29 00:41:00,2177E-3,5C000400,-0724,0825,12306,028.8,045.5,0.254,753.4,01.17,0.508
2016-07-29 00:42:00,2234E-3,5C000400,-0724,0824,12194,028.8,045.5,0.253,753.4,01.17,0.508
2016-07-29 00:43:00,2196E-3,5C000400,-0724,0825,12333,028.8,045.5,0.254,753.4,01.17,0.508
2016-07-29 00:44:00,2147E-3,5C000400,-0724,0824,12229,028.8,045.5,0.253,753.4,01.17,0.508
2016-07-29 00:45:00,2119E-3,5C000400,-0724,0824,12177,028.8,045.5,0.254,753.4,01.17,0.508
2016-07-29 00:46:00,2262E-3,5C000400,-0724,0825,12300,028.9,045.5,0.253,753.4,01.17,0.508
2016-07-29 00:47:00,2155E-3,5C000400,-0724,0825,12267,028.8,045.5,0.253,753.4,01.17,0.508
2016-07-29 00:48:00,2273E-3,5C000400,-0724,0826,12088,028.8,045.5,0.254,753.4,01.17,0.508
2016-07-29 00:49:00,2090E-3,5C000400,-0724,0825,12255,028.8,045.5,0.253,753.4,01.17,0.508
2016-07-29 00:50:00,2247E-3,5C000400,-0724,0824,12291,028.8,045.5,0.254,753.4,01.17,0.508
2016-07-29 00:51:00,2203E-3,5C000400,-0724,0824,12281,028.8,045.5,0.253,753.4,01.17,0.508
2016-07-29 00:52:00,2187E-3,5C000400,-0724,0825,12137,028.8,045.5,0.253,753.4,01.17,0.508
2016-07-29 00:53:00,2151E-3,5C000400,-0724,0825,12399,028.8,045.5,0.254,753.4,01.17,0.508
2016-07-29 00:54:00,2174E-3,5C000400,-0724,0825,12115,028.8,045.5,0.254,753.3,01.17,0.508
2016-07-29 00:55:00,2286E-3,5C000400,-0724,0824,12300,028.8,045.5,0.253,753.3,01.17,0.508
2016-07-29 00:56:00,2211E-3,5C000400,-0724,0825,12319,028.8,045.5,0.254,753.3,01.17,0.508
2016-07-29 00:57:00,2096E-3,5C000400,-0724,0825,12244,028.8,045.5,0.253,753.3,01.17,0.508
2016-07-29 00:58:00,2143E-3,5C000400,-0724,0825,12322,028.8,045.5,0.254,753.2,01.17,0.508
2016-07-29 00:59:00,2263E-3,5C000400,-0724,0824,12309,028.8,045.5,0.254,753.2,01.17,0.508
2016-07-29 01:00:00,2085E-3,5C000400,-0724,0824,12150,028.8,045.5,0.253,753.1,01.17,0.508
2016-07-29 01:01:00,2110E-3,5C000400,-0724,0824,12263,028.8,045.5,0.254,753.1,01.17,0.508
2016-07-29 01:02:00,2098E-3,5C000400,-0724,0824,12214,028.8,045.5,0.253,753.1,01.17,0.508
2016-07-29 01:03:00,2077E-3,5C000400,-0724,0824,12194,028.8,045.5,0.254,753.1,01.17,0.508
2016-07-29 01:04:00,2214E-3,5C000400,-0724,0825,12166,028.8,045.5,0.253,753.1,01.17,0.508
2016-07-29 01:05:00,2171E-3,5C000400,-0724,0824,12292,028.8,045.5,0.254,753.1,01.17,0.508
2016-07-29 01:06:00,2243E-3,5C000400,-0724,0825,12246,028.7,045.5,0.254,753.1,01.17,0.508
2016-07-29 01:07:00,2209E-3,5C000400,-0724,0826,12154,028.8,045.5,0.253,753.1,01.17,0.508
2016-07-29 01:08:00,2274E-3,5C000400,-0724,0825,12190,028.8,045.5,0.253,753.1,01.17,0.508
2016-07-29 01:09:00,2169E-3,5C000400,-0724,0826,12289,028.8,045.5,0.253,753.1,01.17,0.508
2016-07-29 01:10:00,2248E-3,5C000400,-0724,0825,12061,028.8,045.5,0.254,753.1,01.17,0.508
2016-07-29 01:11:00,2297E-3,5C000400,-0724,0825,12286,028.8,045.5,0.253,753.1,01.17,0.508
2016-07-29 01:12:00,2292E-3,5C000400,-0724,0825,12145,028.8,045.5,0.254,753.1,01.17,0.508
2016-07-29 01:13:00,2360E-3,5C000400,-0724,0825,12306,028.8,045.5,0.253,753.0,01.17,0.508
2016-07-29 01:14:00,2176E-3,5C000400,-0724,0824,12310,028.8,045.5,0.254,752.9,01.17,0.508
2016-07-29 01:15:00,2237E-3,5C000400,-0724,0824,12276,028.8,045.5,0.253,752.9,01.17,0.508
2016-07-29 01:16:00,2330E-3,5C000400,-0724,0825,12134,028.8,045.5,0.254,752.9,01.17,0.508
2016-07-29 01:17:00,2280E-3,5C000400,-0724,0825,12207,028.8,045.5,0.253,752.9,01.17,0.508
2016-07-29 01:18:00,2153E-3,5C000400,-0724,0824,12173,028.8,045.5,0.254,752.9,01.17,0.508
2016-07-29 01:19:00,2210E-3,5C000400,-0724,0825,12154,028.8,045.5,0.254,752.9,01.17,0.508
2016-07-29 01:20:00,2173E-3,5C000400,-0724,0825,12337,028.8,045.5,0.253,752.9,01.17,0.508
2016-07-29 01:21:00,2154E-3,5C000400,-0724,0825,12248,028.8,045.5,0.254,752.9,01.17,0.508
2016-07-29 01:22:00,2260E-3,5C000400,-0724,0825,12268,028.8,045.5,0.253,752.9,01.17,0.508
2016-07-29 01:23:00,2234E-3,5C000400,-0724,0824,12332,028.8,045.5,0.254,752.8,01.17,0.508
2016-07-29 01:24:00,2250E-3,5C000400,-0724,0825,12335,028.8,045.5,0.253,752.9,01.17,0.508
2016-07-29 01:25:00,2184E-3,5C000400,-0724,0825,12223,028.8,045.5,0.254,752.8,01.17,0.508
2016-07-29 01:26:00,2402E-3,5C000400,-0724,0825,12227,028.8,045.5,0.253,752.8,01.17,0.508
2016-07-29 01:27:00,2016E-3,5C000400,-0724,0824,12288,028.8,045.5,0.254,752.8,01.17,0.508
2016-07-29 01:28:00,2193E-3,5C000400,-0724,0825,12313,028.8,045.5,0.253,752.9,01.17,0.508
2016-07-29 01:29:00,2186E-3,5C000400,-0724,0825,12231,028.8,045.5,0.254,752.8,01.17,0.508
2016-07-29 01:30:00,2210E-3,5C000400,-0724,0824,12223,028.8,045.5,0.254,752.8,01.17,0.508
2016-07-29 01:31:00,2190E-3,5C000400,-0724,0825,12194,028.8,045.5,0.253,752.9,01.17,0.508
2016-07-29 01:32:00,2064E-3,5C000400,-0724,0825,12170,028.8,045.5,0.254,752.8,01.17,0.508
2016-07-29 01:33:00,2202E-3,5C000400,-0724,0825,12195,028.8,045.5,0.253,752.9,01.17,0.508
2016-07-29 01:34:00,2073E-3,5C000400,-0724,0825,12318,028.8,045.5,0.254,752.8,01.17,0.508
2016-07-29 01:35:00,2150E-3,5C000400,-0724,0824,12255,028.8,045.5,0.253,752.9,01.17,0.508
2016-07-29 01:36:00,2148E-3,5C000400,-0724,0825,12168,028.8,045.5,0.254,752.9,01.17,0.508
2016-07-29 01:37:00,2232E-3,5C000400,-0724,0824,12195,028.8,045.5,0.253,752.9,01.17,0.508
2016-07-29 01:38:00,2180E-3,5C000400,-0724,0824,12161,028.8,045.5,0.253,753.0,01.17,0.508
2016-07-29 01:39:00,2216E-3,5C000400,-0724,0825,12114,028.8,045.5,0.254,753.0,01.17,0.508
2016-07-29 01:40:00,2089E-3,5C000400,-0724,0825,12223,028.8,045.5,0.253,753.0,01.17,0.508
2016-07-29 01:41:00,2280E-3,5C000400,-0724,0825,12317,028.8,045.5,0.254,753.0,01.17,0.508
2016-07-29 01:42:00,2352E-3,5C000400,-0724,0825,12272,028.8,045.5,0.253,753.0,01.17,0.508
2016-07-29 01:43:00,2090E-3,5C000400,-0724,0824,12106,028.8,045.5,0.253,753.0,01.17,0.508
2016-07-29 01:44:00,2333E-3,5C000400,-0724,0824,12241,028.8,045.5,0.254,753.0,01.17,0.508
2016-07-29 01:45:00,2179E-3,5C000400,-0724,0825,12174,028.8,045.5,0.253,752.9,01.17,0.508
2016-07-29 01:46:00,2193E-3,5C000400,-0724,0824,12231,028.8,045.5,0.254,752.9,01.17,0.508
2016-07-29 01:47:00,2187E-3,5C000400,-0724,0825,12299,028.8,045.5,0.253,752.9,01.17,0.508
2016-07-29 01:48:00,2192E-3,5C000400,-0724,0825,12345,028.8,045.5,0.254,752.9,01.17,0.508
2016-07-29 01:49:00,2294E-3,5C000400,-0724,0825,12366,028.8,045.5,0.253,752.8,01.17,0.508
2016-07-29 01:50:00,2231E-3,5C000400,-0724,0825,12225,028.8,045.5,0.253,752.8,01.17,0.508
2016-07-29 01:51:00,2130E-3,5C000400,-0724,0825,12280,028.8,045.5,0.254,752.8,01.17,0.508
2016-07-29 01:52:00,2085E-3,5C000400,-0724,0826,12282,028.8,045.5,0.253,752.8,01.17,0.508
2016-07-29 01:53:00,2169E-3,5C000400,-0724,0826,12113,028.8,045.5,0.253,752.8,01.17,0.508
2016-07-29 01:54:00,2228E-3,5C000400,-0724,0824,12206,028.8,045.5,0.253,752.7,01.17,0.508
2016-07-29 01:55:00,2222E-3,5C000400,-0724,0825,12263,028.8,045.5,0.253,752.7,01.17,0.508
2016-07-29 01:56:00,2218E-3,5C000400,-0724,0824,12228,028.8,045.5,0.254,752.7,01.17,0.508
2016-07-29 01:57:00,2321E-3,5C000400,-0724,0824,12293,028.8,045.5,0.253,752.7,01.17,0.508
2016-07-29 01:58:00,2064E-3,5C000400,-0724,0826,12264,028.8,045.5,0.254,752.6,01.17,0.508
2016-07-29 01:59:00,2332E-3,5C000400,-0724,0824,12238,028.8,045.5,0.253,752.7,01.17,0.508
2016-07-29 02:00:00,2215E-3,5C000400,-0724,0825,12227,028.8,045.5,0.254,752.7,01.17,0.508
2016-07-29 02:01:00,2177E-3,5C000400,-0724,0824,12251,028.8,045.4,0.253,752.6,01.17,0.508
2016-07-29 02:02:00,2390E-3,5C000400,-0724,0824,12260,028.8,045.5,0.253,752.6,01.17,0.508
2016-07-29 02:03:00,2289E-3,5C000400,-0724,0824,12243,028.8,045.5,0.254,752.5,01.17,0.508
2016-07-29 02:04:00,2130E-3,5C000400,-0724,0824,12170,028.8,045.5,0.253,752.5,01.17,0.508
2016-07-29 02:05:00,2174E-3,5C000400,-0724,0825,12213,028.8,045.5,0.254,752.5,01.17,0.508
2016-07-29 02:06:00,2204E-3,5C000400,-0724,0825,12261,028.8,045.5,0.253,752.5,01.17,0.508
2016-07-29 02:07:00,2254E-3,5C000400,-0724,0825,12392,028.8,045.5,0.254,752.4,01.17,0.508
2016-07-29 02:08:00,2098E-3,5C000400,-0724,0826,12150,028.8,045.5,0.253,752.4,01.17,0.508
2016-07-29 02:09:00,2211E-3,5C000400,-0724,0825,12181,028.8,045.5,0.254,752.3,01.17,0.508
2016-07-29 02:10:00,2206E-3,5C000400,-0724,0826,12354,028.8,045.5,0.254,752.4,01.17,0.508
2016-07-29 02:11:00,2199E-3,5C000400,-0724,0825,12315,028.8,045.5,0.253,752.4,01.17,0.508
2016-07-29 02:12:00,2299E-3,5C000400,-0724,0825,12207,028.8,045.5,0.254,752.4,01.17,0.508
2016-07-29 02:13:00,2231E-3,5C000400,-0724,0825,12248,028.8,045.5,0.253,752.4,01.17,0.508
2016-07-29 02:14:00,2291E-3,5C000400,-0724,0825,12216,028.8,045.5,0.254,752.4,01.17,0.508
2016-07-29 02:15:00,2164E-3,5C000400,-0724,0825,12311,028.8,045.5,0.253,752.4,01.17,0.508
2016-07-29 02:16:00,2087E-3,5C000400,-0724,0825,12220,028.8,045.5,0.254,752.4,01.17,0.508
2016-07-29 02:17:00,2164E-3,5C000400,-0724,0825,12307,028.8,045.5,0.254,752.5,01.17,0.508
2016-07-29 02:18:00,2243E-3,5C000400,-0724,0824,12229,028.8,045.5,0.253,752.4,01.17,0.508
2016-07-29 02:19:00,2224E-3,5C000400,-0724,0824,12196,028.8,045.5,0.254,752.4,01.17,0.508
2016-07-29 02:20:00,2153E-3,5C000400,-0724,0825,12188,028.8,045.5,0.253,752.4,01.17,0.508
2016-07-29 02:21:00,2179E-3,5C000400,-0724,0824,11883,028.8,045.5,0.254,752.4,01.17,0.508
2016-07-29 02:22:00,2175E-3,5C000400,-0724,0825,12422,028.8,045.5,0.253,752.4,01.17,0.508
2016-07-29 02:23:00,2104E-3,5C000400,-0724,0824,12342,028.8,045.5,0.254,752.4,01.17,0.508
2016-07-29 02:24:00,2223E-3,5C000400,-0724,0824,12196,028.8,045.5,0.254,752.4,01.17,0.508
2016-07-29 02:25:00,2112E-3,5C000400,-0724,0825,12168,028.8,045.5,0.254,752.4,01.17,0.508
2016-07-29 02:26:00,2243E-3,5C000400,-0724,0825,12127,028.8,045.5,0.253,752.4,01.17,0.508
2016-07-29 02:27:00,2258E-3,5C000400,-0724,0825,12358,028.8,045.5,0.253,752.3,01.17,0.508
2016-07-29 02:28:00,2304E-3,5C000400,-0724,0825,12172,028.8,045.5,0.254,752.4,01.17,0.508
2016-07-29 02:29:00,2186E-3,5C000400,-0724,0825,12288,028.8,045.5,0.253,752.3,01.17,0.508
2016-07-29 02:30:00,2197E-3,5C000400,-0724,0826,12267,028.8,045.5,0.254,752.3,01.17,0.508
2016-07-29 02:31:00,2224E-3,5C000400,-0724,0824,12214,028.8,045.5,0.254,752.3,01.17,0.508
2016-07-29 02:32:00,2210E-3,5C000400,-0724,0825,12218,028.8,045.5,0.253,752.2,01.17,0.508
2016-07-29 02:33:00,2101E-3,5C000400,-0724,0825,12297,028.8,045.5,0.254,752.3,01.17,0.508
2016-07-29 02:34:00,2187E-3,5C000400,-0724,0824,12172,028.8,045.5,0.253,752.3,01.17,0.508
2016-07-29 02:35:00,2242E-3,5C000400,-0724,0825,12297,028.8,045.5,0.254,752.2,01.17,0.508
2016-07-29 02:36:00,2171E-3,5C000400,-0724,0826,12299,028.8,045.5,0.253,752.2,01.17,0.508
2016-07-29 02:37:00,2251E-3,5C000400,-0724,0825,12256,028.8,045.5,0.253,752.2,01.17,0.508
2016-07-29 02:38:00,2182E-3,5C000400,-0724,0825,12344,028.8,045.5,0.254,752.1,01.17,0.508
2016-07-29 02:39:00,2268E-3,5C000400,-0724,0824,12143,028.8,045.5,0.253,752.1,01.17,0.508
2016-07-29 02:40:00,2183E-3,5C000400,-0724,0825,12229,028.8,045.5,0.254,752.1,01.17,0.508
2016-07-29 02:41:00,2283E-3,5C000400,-0724,0825,12232,028.8,045.5,0.253,752.1,01.17,0.508
2016-07-29 02:42:00,2179E-3,5C000400,-0724,0825,12242,028.8,045.5,0.254,752.1,01.17,0.508
2016-07-29 02:43:00,2167E-3,5C000400,-0724,0825,12251,028.8,045.5,0.253,752.0,01.17,0.508
2016-07-29 02:44:00,2157E-3,5C000400,-0724,0825,12214,028.8,045.5,0.253,752.1,01.17,0.508
2016-07-29 02:45:00,2203E-3,5C000400,-0724,0825,12219,028.8,045.5,0.254,752.1,01.17,0.508
2016-07-29 02:46:00,2130E-3,5C000400,-0724,0825,12162,028.8,045.5,0.253,752.1,01.17,0.508
2016-07-29 02:47:00,2110E-3,5C000400,-0724,0824,12367,028.8,045.5,0.254,752.0,01.17,0.508
2016-07-29 02:48:00,2366E-3,5C000400,-0724,0825,12224,028.8,045.5,0.253,752.1,01.17,0.508
2016-07-29 02:49:00,2187E-3,5C000400,-0724,0825,12277,028.8,045.5,0.254,752.0,01.17,0.508
2016-07-29 02:50:00,2396E-3,5C000400,-0724,0825,12225,028.8,045.5,0.253,752.0,01.17,0.508
2016-07-29 02:51:00,2177E-3,5C000400,-0724,0825,12261,028.8,045.5,0.254,751.9,01.17,0.508
2016-07-29 02:52:00,2269E-3,5C000400,-0724,0824,12294,028.8,045.5,0.253,751.9,01.17,0.508
2016-07-29 02:53:00,2243E-3,5C000400,-0724,0824,12090,028.8,045.5,0.253,751.9,01.17,0.508
2016-07-29 02:54:00,2078E-3,5C000400,-0724,0825,12260,028.8,045.5,0.254,752.0,01.17,0.508
2016-07-29 02:55:00,2172E-3,5C000400,-0724,0826,12207,028.8,045.5,0.253,752.0,01.17,0.508
2016-07-29 02:56:00,2139E-3,5C000400,-0724,0824,12201,028.8,045.5,0.254,752.0,01.17,0.508
2016-07-29 02:57:00,2159E-3,5C000400,-0724,0826,12242,028.8,045.5,0.253,751.9,01.17,0.508
2016-07-29 02:58:00,2371E-3,5C000400,-0724,0826,12223,028.8,045.5,0.254,752.0,01.17,0.508
2016-07-29 02:59:00,2171E-3,5C000400,-0724,0825,12221,028.8,045.5,0.253,751.9,01.17,0.508
2016-07-29 03:00:00,2218E-3,5C000400,-0724,0825,12308,028.8,045.5,0.254,752.0,01.17,0.508
2016-07-29 03:01:00,2088E-3,5C000400,-0724,0825,12252,028.8,045.5,0.253,751.9,01.17,0.508
2016-07-29 03:02:00,2358E-3,5C000400,-0724,0825,12253,028.8,045.5,0.253,751.9,01.17,0.508
2016-07-29 03:03:00,2124E-3,5C000400,-0724,0825,12097,028.8,045.5,0.253,751.9,01.17,0.508
2016-07-29 03:04:00,2142E-3,5C000400,-0724,0825,12205,028.8,045.5,0.253,751.9,01.17,0.508
2016-07-29 03:05:00,2094E-3,5C000400,-0724,0825,12297,028.8,045.5,0.254,752.0,01.17,0.508
2016-07-29 03:06:00,2090E-3,5C000400,-0724,0825,12128,028.8,045.4,0.253,751.9,01.17,0.508
2016-07-29 03:07:00,2176E-3,5C000400,-0724,0825,12410,028.8,045.5,0.254,751.8,01.17,0.508
2016-07-29 03:08:00,2233E-3,5C000400,-0724,0825,12226,028.8,045.5,0.253,751.8,01.17,0.508
2016-07-29 03:09:00,2253E-3,5C000400,-0724,0825,12235,028.8,045.5,0.253,751.8,01.17,0.508
2016-07-29 03:10:00,2252E-3,5C000400,-0724,0825,12227,028.8,045.5,0.254,751.8,01.17,0.508
2016-07-29 03:11:00,2102E-3,5C000400,-0724,0825,12268,028.8,045.5,0.253,751.8,01.17,0.508
2016-07-29 03:12:00,2075E-3,5C000400,-0724,0825,12258,028.8,045.5,0.254,751.8,01.17,0.508
2016-07-29 03:13:00,2137E-3,5C000400,-0724,0825,12257,028.8,045.5,0.253,751.8,01.17,0.508
2016-07-29 03:14:00,2135E-3,5C000400,-0724,0825,12235,028.8,045.5,0.254,751.8,01.17,0.508
2016-07-29 03:15:00,2327E-3,5C000400,-0724,0825,12262,028.8,045.5,0.253,751.7,01.17,0.508
2016-07-29 03:16:00,2242E-3,5C000400,-0724,0825,12259,028.8,045.5,0.254,751.7,01.17,0.508
2016-07-29 03:17:00,2177E-3,5C000400,-0724,0825,12257,028.8,045.5,0.253,751.6,01.17,0.508
2016-07-29 03:18:00,2232E-3,5C000400,-0724,0825,12100,028.8,045.5,0.253,751.6,01.17,0.508
2016-07-29 03:19:00,2174E-3,5C000400,-0724,0824,12099,028.8,045.5,0.253,751.6,01.17,0.508
2016-07-29 03:20:00,2235E-3,5C000400,-0724,0824,12030,028.8,045.5,0.253,751.7,01.17,0.508
2016-07-29 03:21:00,2312E-3,5C000400,-0724,0824,12269,028.8,045.5,0.254,751.7,01.17,0.508
2016-07-29 03:22:00,2273E-3,5C000400,-0724,0825,12289,028.8,045.5,0.253,751.7,01.17,0.508
2016-07-29 03:23:00,2101E-3,5C000400,-0724,0825,12264,028.8,045.5,0.254,751.7,01.17,0.508
2016-07-29 03:24:00,2249E-3,5C000400,-0724,0825,12227,028.9,045.5,0.253,751.7,01.17,0.508
2016-07-29 03:25:00,2281E-3,5C000400,-0724,0825,12332,028.8,045.5,0.254,751.7,01.17,0.508
2016-07-29 03:26:00,2270E-3,5C000400,-0724,0825,12177,028.8,045.5,0.253,751.7,01.17,0.508
2016-07-29 03:27:00,2253E-3,5C000400,-0724,0825,12227,028.8,045.5,0.254,751.7,01.17,0.508
2016-07-29 03:28:00,2097E-3,5C000400,-0724,0825,12306,028.8,045.5,0.253,751.7,01.17,0.508
2016-07-29 03:29:00,2241E-3,5C000400,-0724,0826,12247,028.9,045.5,0.254,751.6,01.17,0.508
2016-07-29 03:30:00,2314E-3,5C000400,-0724,0824,12127,028.8,045.5,0.254,751.6,01.17,0.508
2016-07-29 03:31:00,2285E-3,5C000400,-0724,0825,12269,028.8,045.5,0.253,751.6,01.17,0.508
2016-07-29 03:32:00,2192E-3,5C000400,-0724,0825,12139,028.8,045.5,0.254,751.6,01.17,0.508
2016-07-29 03:33:00,2151E-3,5C000400,-0724,0825,12210,028.8,045.5,0.253,751.6,01.17,0.508
2016-07-29 03:34:00,2169E-3,5C000400,-0724,0825,12319,028.8,045.5,0.253,751.6,01.17,0.508
2016-07-29 03:35:00,2256E-3,5C000400,-0724,0825,12193,028.8,045.4,0.253,751.6,01.17,0.508
2016-07-29 03:36:00,2169E-3,5C000400,-0724,0824,12411,028.8,045.5,0.253,751.6,01.17,0.508
2016-07-29 03:37:00,2238E-3,5C000400,-0724,0824,12235,028.8,045.5,0.253,751.6,01.17,0.508
2016-07-29 03:38:00,2271E-3,5C000400,-0724,0825,12245,028.8,045.5,0.253,751.6,01.17,0.508
2016-07-29 03:39:00,2245E-3,5C000400,-0724,0825,12356,028.8,045.5,0.253,751.6,01.17,0.508
2016-07-29 03:40:00,2205E-3,5C000400,-0724,0826,12167,028.8,045.5,0.253,751.5,01.17,0.508
2016-07-29 03:41:00,2316E-3,5C000400,-0724,0825,12326,028.8,045.5,0.254,751.5,01.17,0.508
2016-07-29 03:42:00,2252E-3,5C000400,-0724,0825,12164,028.8,045.5,0.253,751.6,01.17,0.508
2016-07-29 03:43:00,2234E-3,5C000400,-0724,0825,12359,028.8,045.5,0.254,751.6,01.17,0.508
2016-07-29 03:44:00,2184E-3,5C000400,-0724,0825,12270,028.8,045.5,0.253,751.5,01.17,0.508
2016-07-29 03:45:00,2218E-3,5C000400,-0724,0824,12122,028.8,045.5,0.254,751.4,01.17,0.508
2016-07-29 03:46:00,2256E-3,5C000400,-0724,0825,12246,028.8,045.5,0.253,751.4,01.17,0.508
2016-07-29 03:47:00,2238E-3,5C000400,-0724,0825,12324,028.8,045.5,0.254,751.4,01.17,0.508
2016-07-29 03:48:00,2213E-3,5C000400,-0724,0825,12252,028.8,045.5,0.253,751.5,01.17,0.508
2016-07-29 03:49:00,2188E-3,5C000400,-0724,0825,12227,028.8,045.5,0.253,751.4,01.17,0.508
2016-07-29 03:50:00,2294E-3,5C000400,-0724,0825,12196,028.8,045.5,0.253,751.5,01.17,0.508
2016-07-29 03:51:00,2170E-3,5C000400,-0724,0826,12210,028.8,045.5,0.253,751.5,01.17,0.508
2016-07-29 03:52:00,2072E-3,5C000400,-0724,0825,12204,028.8,045.5,0.254,751.4,01.17,0.508
2016-07-29 03:53:00,2285E-3,5C000400,-0724,0825,12256,028.8,045.5,0.253,751.3,01.17,0.508
2016-07-29 03:54:00,2123E-3,5C000400,-0724,0825,12212,028.8,045.5,0.254,751.3,01.17,0.508
2016-07-29 03:55:00,2127E-3,5C000400,-0724,0824,12195,028.8,045.5,0.253,751.2,01.17,0.508
2016-07-29 03:56:00,2017E-3,5C000400,-0724,0826,12176,028.8,045.5,0.253,751.3,01.17,0.508
2016-07-29 03:57:00,2320E-3,5C000400,-0724,0825,12286,028.8,045.5,0.254,751.3,01.17,0.508
2016-07-29 03:58:00,2238E-3,5C000400,-0724,0826,12119,028.8,045.5,0.253,751.3,01.17,0.508
2016-07-29 03:59:00,2100E-3,5C000400,-0724,0825,12271,028.8,045.5,0.254,751.3,01.17,0.508
2016-07-29 04:00:00,2115E-3,5C000400,-0724,0826,12320,028.8,045.5,0.253,751.3,01.17,0.508
2016-07-29 04:01:00,2234E-3,5C000400,-0724,0825,12181,028.8,045.5,0.253,751.3,01.17,0.508
2016-07-29 04:02:00,2341E-3,5C000400,-0724,0825,12223,028.8,045.5,0.253,751.3,01.17,0.508
2016-07-29 04:03:00,2290E-3,5C000400,-0724,0825,12296,028.8,045.5,0.253,751.4,01.17,0.508
2016-07-29 04:04:00,2069E-3,5C000400,-0724,0825,12292,028.8,045.5,0.254,751.4,01.17,0.508
2016-07-29 04:05:00,2224E-3,5C000400,-0724,0825,12345,028.8,045.5,0.253,751.4,01.17,0.508
2016-07-29 04:06:00,2248E-3,5C000400,-0724,0825,12333,028.8,045.5,0.253,751.4,01.17,0.508
2016-07-29 04:07:00,2236E-3,5C000400,-0724,0824,12288,028.8,045.5,0.254,751.3,01.17,0.508
2016-07-29 04:08:00,2256E-3,5C000400,-0724,0826,12252,028.8,045.5,0.253,751.3,01.17,0.508
2016-07-29 04:09:00,2321E-3,5C000400,-0724,0826,12210,028.8,045.5,0.253,751.4,01.17,0.508
2016-07-29 04:10:00,2277E-3,5C000400,-0724,0825,12179,028.8,045.5,0.253,751.3,01.17,0.508
2016-07-29 04:11:00,2160E-3,5C000400,-0724,0825,12282,028.8,045.5,0.253,751.4,01.17,0.508
2016-07-29 04:12:00,2166E-3,5C000400,-0724,0826,12117,028.8,045.5,0.253,751.3,01.17,0.508
2016-07-29 04:13:00,2386E-3,5C000400,-0724,0826,12253,028.8,045.5,0.253,751.3,01.17,0.508
2016-07-29 04:14:00,2278E-3,5C000400,-0724,0825,12228,028.8,045.5,0.253,751.3,01.17,0.508
2016-07-29 04:15:00,2355E-3,5C000400,-0724,0825,12278,028.8,045.5,0.253,751.4,01.17,0.508
2016-07-29 04:16:00,2268E-3,5C000400,-0724,0825,12233,028.8,045.5,0.254,751.3,01.17,0.508
2016-07-29 04:17:00,2288E-3,5C000400,-0724,0826,12227,028.8,045.5,0.253,751.3,01.17,0.508
2016-07-29 04:18:00,2282E-3,5C000400,-0724,0824,12307,028.8,045.5,0.254,751.3,01.17,0.508
2016-07-29 04:19:00,2209E-3,5C000400,-0724,0825,12258,028.8,045.5,0.253,751.2,01.17,0.508
2016-07-29 04:20:00,2179E-3,5C000400,-0724,0825,12155,028.8,045.5,0.254,751.2,01.17,0.508